Location: Ferchesar
(52.6477°N, 12.4298°E)
Time: 09:14:03
(UTC+01:00)

Vanguard 1 - Pass Details

Date: 07 December 2021
Orbit: 652 x 3830 km, 34.2° (Epoch: 24 January)

Event Time Altitude Azimuth Distance (km) Brightness Sun altitude
Rises 04:59:11 0° 275° (W) 7,977 - -27.2°
Reaches altitude 10° 05:06:07 10° 266° (W) 6,856 - -26.1°
Exits shadow 05:15:14 22° 245° (WSW) 5,511 13.3 -24.7°
Maximum altitude 05:21:57 26° 220° (SW) 4,823 13.2 -23.7°
Drops below altitude 10° 05:33:46 10° 171° (S) 5,023 13.9 -22.0°
Sets 05:37:51 0° 159° (SSE) 5,577 14.3 -21.3°
